This is the latest recevied weather packets stored in our database for station/object DL1GRJ-13. If no packets are shown the sender has not sent any weather packets the latest 10 day(s).
| Time | Temp. | Humidity | Pressure | Rain* | Wind** | Luminosity | Snow |
|---|---|---|---|---|---|---|---|
| 1777716051 | 20.56° C | 27% | 1023.5 hPa | - | - | - | - |
| 1777714251 | 18.89° C | 26% | 1023.8 hPa | - | - | - | - |
| 1777712451 | 18.33° C | 28% | 1023.9 hPa | - | - | - | - |
| 1777710651 | 17.78° C | 31% | 1024.1 hPa | - | - | - | - |
| 1777708851 | 16.67° C | 33% | 1023.9 hPa | - | - | - | - |
| 1777707051 | 15° C | 36% | 1024.2 hPa | - | - | - | - |
| 1777705251 | 13.33° C | 43% | 1024.2 hPa | - | - | - | - |
| 1777703450 | 11.67° C | 43% | 1024.2 hPa | - | - | - | - |
| 1777701650 | 10.56° C | 46% | 1024.3 hPa | - | - | - | - |
| 1777699850 | 9.44° C | 46% | 1024.2 hPa | - | - | - | - |
| 1777698050 | 8.89° C | 47% | 1024 hPa | - | - | - | - |
| 1777696250 | 7.78° C | 48% | 1024.1 hPa | - | - | - | - |
| 1777694450 | 7.78° C | 48% | 1024.2 hPa | - | - | - | - |
| 1777692650 | 7.78° C | 48% | 1024.2 hPa | - | - | - | - |
| 1777690849 | 8.33° C | 48% | 1024.3 hPa | - | - | - | - |
| 1777689049 | 8.33° C | 48% | 1024.4 hPa | - | - | - | - |
| 1777687249 | 8.33° C | 46% | 1024.6 hPa | - | - | - | - |
| 1777685449 | 8.89° C | 46% | 1024.6 hPa | - | - | - | - |
| 1777683649 | 8.89° C | 46% | 1024.7 hPa | - | - | - | - |
| 1777681849 | 8.89° C | 44% | 1024.9 hPa | - | - | - | - |
| 1777680049 | 9.44° C | 43% | 1025 hPa | - | - | - | - |
| 1777678249 | 9.44° C | 43% | 1025.2 hPa | - | - | - | - |
| 1777676448 | 9.44° C | 42% | 1025.3 hPa | - | - | - | - |
| 1777674649 | 10° C | 41% | 1025.4 hPa | - | - | - | - |
| 1777672848 | 10.56° C | 40% | 1025.4 hPa | - | - | - | - |
* Rain since midnight (hover to see other rain measurements)
** Current wind speed in m/s (hover to see current wind gust speed)